Aérodrome :
LOGIN :

S'inscrire | Disclaimer

   EN    FR    IT 

 










Légende :    VFR   VFR Marginal   IFR   IFR Intensif   IFR Très Intensif
Visi : 
Plafond : 
>= 8 km
>= 3000ft
5 à 8 km
1000 à 3000 ft
1500m à 5 km
500 à 1000 ft
800 à 1500m
200 à 500 ft
< 800m
< 200 ft
Symboles :   Orages  Brouillard  Fortes neiges  Fortes précipitations  Vent > 20 kt
SIGMETs :   Divers  Orages  Givrage  Turbulence  Onde Orograph.  Cendres Volcan.







- Altitude de l'aérodrome : 157 ft
- Code IATA : SXF


EDDB - Berlin Schönefeld

DERNIER METAR :
  • 181420Z 12008KT 020V160 CAVOK 29/08 Q1015 NOSIG

METARs EXPIRÉS :
  • 181350Z 12010KT 090V170 CAVOK 28/09 Q1015 NOSIG
  • 181320Z 13008G18KT 070V160 CAVOK 28/09 Q1016 NOSIG
  • 181250Z 12012KT 090V150 CAVOK 29/10 Q1016 NOSIG
  • 181220Z 13012KT CAVOK 28/10 Q1016 NOSIG
  • 181150Z 12009G20KT 070V230 CAVOK 29/11 Q1017 NOSIG

TAF TAF EDDB
Valide du 18 à 12h jusqu'au 19 à 12h UTC


181100Z 1812/1912 15011KT CAVOK
PROB30
TEMPO 1812/1814 15015G25KT
BECMG 1817/1819 13006KT
Pas de NOTAMs connus pour ce terrain.



MET'MAP, la Météo Aéronautique d'un coup d'oeil ! - Copyright ORBIFLY Décembre 2007 - Disclaimer

ORBIFLY MET'MAP TEAM :

Programmation & Développement : Alexandra Zaïnal
Conception & Développement : Baudouin d'Aumeries
Co-Programmation & Développement : Marc-Olivier Méhu
Soutien technique & logistique : Manuel Goepfert

Contact : metmap@orbifly.com




SOURCES & CREDITS :

   NOAA